EW9167 Weather Reports


Display with metric or nautical units.
time (UTC)temp
F
wind
direction
speed
MPH
gust
MPH
rain 1hr
in
rain 24hr
in
rain mn
in
humidity
%
barometer
mb
20260506192434 68 264 4.0 9.0 0.00 0.01 0.01 74 1009.9
20260506191434 67 216 4.0 12.0 0.00 0.01 0.01 75 1009.9
20260506190432 67 226 9.0 9.0 0.00 0.01 0.01 75 1010.2
20260506185434 67 236 5.0 13.0 0.00 0.01 0.01 75 1010.2
20260506184431 67 222 6.0 11.0 0.00 0.01 0.01 76 1010.2
20260506183435 66 253 4.0 9.0 0.00 0.01 0.01 76 1010.2
20260506182436 66 207 4.0 11.0 0.00 0.01 0.01 77 1010.2
20260506181433 66 256 4.0 11.0 0.00 0.01 0.01 78 1010.6
20260506180431 66 145 3.0 9.0 0.00 0.01 0.01 79 1010.2
20260506175432 65 165 2.0 9.0 0.00 0.01 0.01 78 1010.6
20260506174433 66 221 8.0 13.0 0.00 0.01 0.01 76 1010.9
20260506173430 66 131 1.0 7.0 0.00 0.01 0.01 77 1010.6
20260506173402 66 208 2.0 11.0 0.00 0.01 0.01 76 1010.6
20260506171430 66 87 5.0 9.0 0.01 0.01 0.01 77 1010.9
20260506170905 66 252 6.0 13.0 0.01 0.01 0.01 77 1010.9
20260506165434 66 279 2.0 8.0 0.01 0.01 0.01 77 1010.9
20260506164916 67 146 2.0 12.0 0.01 0.01 0.01 76 1011.2
20260506163434 67 157 1.0 5.0 0.01 0.01 0.01 77 1011.2
20260506162434 67 184 2.0 6.0 0.01 0.01 0.01 76 1011.2
20260506161435 67 244 3.0 9.0 0.00 0.00 0.00 74 1011.6
20260506160435 67 147 2.0 13.0 0.00 0.00 0.00 73 1011.9
20260506155433 68 216 3.0 9.0 0.00 0.00 0.00 71 1012.3
20260506154434 68 223 5.0 9.0 0.00 0.00 0.00 70 1011.9
20260506153435 68 165 4.0 11.0 0.00 0.00 0.00 69 1012.3
20260506152432 68 227 4.0 10.0 0.00 0.00 0.00 70 1011.9
20260506151432 68 259 1.0 10.0 0.00 0.00 0.00 68 1011.9
20260506150431 69 186 2.0 13.0 0.00 0.00 0.00 65 1011.9
20260506145435 70 260 3.0 9.0 0.00 0.00 0.00 64 1011.9
20260506144435 71 209 2.0 7.0 0.00 0.00 0.00 62 1012.3
20260506143432 70 196 4.0 7.0 0.00 0.00 0.00 64 1012.3
20260506142435 69 240 6.0 9.0 0.00 0.00 0.00 64 1011.9
20260506141916 69 272 3.0 12.0 0.00 0.00 0.00 63 1012.3
20260506140435 71 219 7.0 12.0 0.00 0.00 0.00 61 1012.3
20260506135436 72 84 3.0 12.0 0.00 0.00 0.00 62 1012.3
20260506134918 70 212 3.0 8.0 0.00 0.00 0.00 63 1011.9
20260506133434 69 245 1.0 9.0 0.00 0.00 0.00 64 1012.3
20260506132430 69 208 2.0 10.0 0.00 0.00 0.00 65 1012.3
20260506131436 68 199 4.0 10.0 0.00 0.00 0.00 65 1012.3
20260506130428 69 148 2.0 10.0 0.00 0.00 0.00 66 1012.3
20260506125427 68 81 1.0 11.0 0.00 0.00 0.00 66 1012.3
20260506124429 69 285 0.0 12.0 0.00 0.00 0.00 67 1012.3
20260506123913 68 94 2.0 8.0 0.00 0.00 0.00 68 1012.3
20260506122428 68 238 4.0 8.0 0.00 0.00 0.00 68 1011.9
20260506121425 68 136 1.0 7.0 0.00 0.00 0.00 68 1012.3
20260506120424 67 243 2.0 6.0 0.00 0.00 0.00 70 1012.3
20260506115421 66 231 2.0 7.0 0.00 0.00 0.00 73 1012.3
20260506114421 65 175 1.0 4.0 0.00 0.00 0.00 73 1012.3
20260506114355 65 149 3.0 7.0 0.00 0.00 0.00 73 1012.3
20260506112418 65 243 2.0 4.0 0.00 0.00 0.00 74 1011.9
20260506111853 65 128 4.0 6.0 0.00 0.00 0.00 74 1011.9
20260506110413 64 167 2.0 7.0 0.00 0.00 0.00 75 1011.9
20260506105412 64 144 1.0 9.0 0.00 0.00 0.00 76 1012.3
20260506104412 63 305 2.0 4.0 0.00 0.00 0.00 77 1012.3
20260506103411 63 117 1.0 5.0 0.00 0.00 0.00 78 1012.3
20260506102848 62 136 1.0 4.0 0.00 0.00 0.00 79 1012.3
20260506101408 62 133 0.0 5.0 0.00 0.00 0.00 79 1011.9
20260506100407 62 158 3.0 4.0 0.00 0.00 0.00 79 1012.3
20260506095408 63 112 2.0 6.0 0.00 0.00 0.00 79 1012.3
20260506094407 63 229 1.0 4.0 0.00 0.00 0.00 79 1012.3
20260506093406 63 119 1.0 5.0 0.00 0.00 0.00 78 1011.9
20260506092406 63 143 2.0 4.0 0.00 0.00 0.00 78 1011.9
20260506091405 63 131 2.0 4.0 0.00 0.00 0.00 78 1011.6
20260506090401 63 162 1.0 4.0 0.00 0.00 0.00 78 1011.9
20260506085400 63 89 2.0 4.0 0.00 0.00 0.00 78 1012.3
20260506084842 63 202 3.0 5.0 0.00 0.00 0.00 78 1011.9
20260506083358 64 131 2.0 3.0 0.00 0.00 0.00 78 1012.3
20260506082358 64 122 2.0 6.0 0.00 0.00 0.00 78 1012.3
20260506081834 64 159 2.0 9.0 0.00 0.00 0.00 77 1012.6
20260506080355 64 168 2.0 5.0 0.00 0.00 0.00 77 1012.3
20260506072350 64 153 0.0 4.0 0.00 0.00 0.00 77 1012.3
20260506071350 64 137 1.0 4.0 0.00 0.00 0.00 76 1012.3
20260506070348 64 179 1.0 4.0 0.00 0.00 0.00 77 1012.3
20260506062332 65 132 1.0 4.0 0.00 0.00 0.00 75 1012.3
20260506061331 65 133 2.0 4.0 0.00 0.00 0.00 75 1012.3
20260506060813 66 119 1.0 6.0 0.00 0.00 0.00 74 1012.3
20260506051335 66 161 1.0 4.0 0.00 0.00 0.00 73 1012.6
20260506050809 66 138 2.0 4.0 0.00 0.00 0.00 73 1012.9
20260506044334 66 156 3.0 4.0 0.00 0.00 0.00 72 1012.9
20260506043333 67 215 1.0 7.0 0.00 0.00 0.00 72 1012.9
20260506042331 67 106 1.0 4.0 0.00 0.00 0.00 71 1012.9
20260506041333 67 145 2.0 5.0 0.00 0.00 0.00 71 1012.9
20260506040331 67 152 2.0 5.0 0.00 0.00 0.00 70 1012.9
20260506035803 67 164 2.0 6.0 0.00 0.00 0.00 70 1012.9
20260506034333 67 160 2.0 4.0 0.00 0.00 0.00 70 1012.9
20260506033332 67 187 3.0 6.0 0.00 0.00 0.00 69 1012.9
20260506032333 67 144 2.0 4.0 0.00 0.00 0.00 68 1012.9
20260506031333 68 104 1.0 9.0 0.00 0.00 0.00 68 1012.9
20260506030332 68 98 0.0 6.0 0.00 0.00 0.00 67 1012.9
20260506025331 68 188 3.0 5.0 0.00 0.00 0.00 66 1012.6
20260506024332 69 134 2.0 5.0 0.00 0.00 0.00 65 1012.9
20260506023334 69 186 4.0 5.0 0.00 0.00 0.00 64 1012.9
20260506022334 69 119 2.0 5.0 0.00 0.00 0.00 63 1012.6
20260506021333 69 169 0.0 5.0 0.00 0.00 0.00 63 1012.9
20260506020332 69 205 2.0 4.0 0.00 0.00 0.00 62 1012.6
20260506015815 69 71 0.0 6.0 0.00 0.00 0.00 62 1012.9
20260506014333 69 107 2.0 5.0 0.00 0.00 0.00 62 1012.6
20260506013814 69 170 5.0 7.0 0.00 0.00 0.00 62 1012.3
20260506013253 70 120 2.0 6.0 0.00 0.00 0.00 61 1012.6
20260506011333 70 293 2.0 5.0 0.00 0.00 0.00 61 1012.3
20260506010334 71 139 1.0 5.0 0.00 0.00 0.00 59 1012.3
20260506005332 71 116 2.0 4.0 0.00 0.00 0.00 58 1012.3
20260506004335 71 181 2.0 3.0 0.00 0.00 0.00 56 1012.3
20260506003335 72 191 2.0 4.0 0.00 0.00 0.00 54 1011.9
20260506002335 73 128 2.0 5.0 0.00 0.00 0.00 52 1011.9
20260506001808 74 131 0.0 5.0 0.00 0.00 0.00 49 1011.6
20260506000332 75 148 2.0 5.0 0.00 0.00 0.00 47 1011.2
20260505235329 76 144 1.0 6.0 0.00 0.00 0.00 45 1011.6
20260505234334 76 212 2.0 6.0 0.00 0.00 0.00 44 1011.2
20260505233329 77 227 1.0 6.0 0.00 0.00 0.00 43 1011.2
20260505232328 77 218 3.0 5.0 0.00 0.00 0.00 43 1011.2
20260505231324 78 114 1.0 6.0 0.00 0.00 0.00 42 1011.2
20260505230824 79 125 3.0 11.0 0.00 0.00 0.00 41 1010.9
20260505225324 79 126 1.0 9.0 0.00 0.00 0.00 42 1011.2
20260505224323 80 103 0.0 9.0 0.00 0.00 0.00 42 1011.2
20260505223322 80 222 4.0 10.0 0.00 0.00 0.00 41 1011.2
20260505222320 80 268 2.0 13.0 0.00 0.00 0.00 40 1011.2
20260505221318 82 274 5.0 14.0 0.00 0.00 0.00 38 1011.2
20260505220316 85 242 2.0 8.0 0.00 0.00 0.00 37 1011.2
20260505215314 86 210 2.0 11.0 0.00 0.00 0.00 37 1011.2
20260505214312 87 240 5.0 8.0 0.00 0.00 0.00 34 1011.2
20260505213312 86 244 4.0 11.0 0.00 0.00 0.00 35 1011.2
20260505212311 87 255 5.0 13.0 0.00 0.00 0.00 34 1010.9
20260505211309 88 230 2.0 9.0 0.00 0.00 0.00 33 1010.9
20260505210751 89 247 4.0 11.0 0.00 0.00 0.00 31 1010.9
20260505205310 89 222 9.0 15.0 0.00 0.00 0.00 30 1010.6
20260505204306 89 236 3.0 10.0 0.00 0.00 0.00 30 1010.9
20260505203305 89 250 2.0 15.0 0.00 0.00 0.00 29 1010.9
20260505202306 89 153 2.0 13.0 0.00 0.00 0.00 30 1010.9
20260505202235 89 213 6.0 11.0 0.00 0.00 0.00 30 1010.9
20260505200302 90 298 1.0 13.0 0.00 0.00 0.00 28 1010.6
20260505195301 89 45 0.0 16.0 0.00 0.00 0.00 30 1010.9
20260505194300 88 224 4.0 16.0 0.00 0.00 0.00 31 1010.9
20260505193759 88 281 5.0 11.0 0.00 0.00 0.00 30 1010.9